Simultaneous Nadir Overpasses (SNOs) Predictions

Prediction of SNOs between METOP-B and TERRA Satellite Orbit:

Table of predicted SNOs for the next 14.0 days since TLE Epoch: 9/26/2020
Index Date (METOP-B) Time (METOP-B) Lat,Lon (METOP-B) SZA (METOP-B ) Date (TERRA) Time (TERRA) Lat,Lon (TERRA) SZA (TERRA ) Distance(km) Time Diff (sec)
1 09/28/2020 06:15:28 81.29, 133.05 86.50 09/28/2020 06:16:00 81.29, 132.98 86.51 1.31 32
2 09/28/2020 07:06:09 -81.29, -59.57 93.48 09/28/2020 07:05:27 -81.28, -59.47 93.49 1.66 42
3 10/01/2020 01:49:51 81.29,-160.51 87.62 10/01/2020 01:50:14 81.29,-160.50 87.64 0.81 23
4 10/01/2020 02:40:32 -81.29, 6.92 92.36 10/01/2020 02:39:41 -81.29, 7.08 92.36 2.73 51
5 10/03/2020 21:24:16 81.28, -94.45 88.69 10/03/2020 21:24:30 81.28, -94.38 88.70 1.36 14
6 10/03/2020 22:14:55 -81.29, 73.81 91.19 10/03/2020 22:13:56 -81.30, 73.61 91.24 3.27 59
7 10/06/2020 16:58:40 81.28, -28.00 89.79 10/06/2020 16:58:45 81.28, -27.90 89.80 1.62 5
8 10/06/2020 17:49:19 -81.29, 140.30 90.08 10/06/2020 17:48:11 -81.30, 140.11 90.13 3.19 68
9 10/09/2020 11:42:24 -81.28,-129.28 89.18 10/09/2020 11:43:33 -81.28,-129.09 89.13 3.07 69
